| time (UTC) | temp F | wind direction | speed MPH | gust MPH | rain 1hr in | rain 24hr in | rain mn in | humidity % | barometer mb |
| 20260504141034 | 53 | 264 | 4.0 | 8.0 | 0.00 | 0.00 | 0.00 | 72 | 1006.2 |
| 20260504140534 | 52 | 256 | 5.0 | 8.0 | 0.00 | 0.00 | 0.00 | 1006.2 | |
| 20260504130530 | 46 | 248 | 4.0 | 7.0 | 0.00 | 0.00 | 0.00 | 79 | 1006.0 |
| 20260504110530 | 49 | 334 | 3.0 | 5.0 | 0.00 | 0.00 | 0.00 | 68 | 1005.9 |
| 20260504100529 | 47 | 297 | 2.0 | 3.0 | 0.00 | 0.00 | 0.00 | 73 | 1006.4 |
| 20260504081550 | 53 | 322 | 2.0 | 2.0 | 0.00 | 0.00 | 0.00 | 63 | 1006.7 |
| 20260504081033 | 53 | 304 | 1.0 | 4.0 | 0.00 | 0.00 | 0.00 | 63 | 1006.8 |
| 20260504080533 | 52 | 348 | 1.0 | 4.0 | 0.00 | 0.00 | 0.00 | 65 | 1006.9 |
| 20260504050533 | 56 | 16 | 6.0 | 9.0 | 0.00 | 0.00 | 0.00 | 57 | 1008.7 |
| 20260504045534 | 58 | 70 | 8.0 | 12.0 | 0.00 | 0.00 | 0.00 | 55 | 1008.6 |
| 20260504045030 | 58 | 67 | 9.0 | 11.0 | 0.00 | 0.00 | 0.00 | 55 | 1008.7 |
| 20260504044546 | 58 | 57 | 6.0 | 11.0 | 0.00 | 0.00 | 0.00 | 53 | 1008.8 |
| 20260504044031 | 58 | 56 | 5.0 | 14.0 | 0.00 | 0.00 | 0.00 | 53 | 1009.0 |
| 20260504043531 | 58 | 73 | 10.0 | 14.0 | 0.00 | 0.00 | 0.00 | 52 | 1008.7 |
| 20260504043052 | 58 | 81 | 6.0 | 10.0 | 0.00 | 0.00 | 0.00 | 51 | 1008.8 |
| 20260504042530 | 58 | 15 | 5.0 | 11.0 | 0.00 | 0.00 | 0.00 | 50 | 1009.8 |
| 20260504042035 | 58 | 20 | 8.0 | 11.0 | 0.00 | 0.00 | 0.00 | 49 | 1009.8 |
| 20260504041547 | 58 | 14 | 9.0 | 11.0 | 0.00 | 0.00 | 0.00 | 49 | 1009.9 |
| 20260504041037 | 59 | 341 | 5.0 | 10.0 | 0.00 | 0.00 | 0.00 | 46 | 1009.8 |
| 20260504040535 | 60 | 41 | 7.0 | 9.0 | 0.00 | 0.00 | 0.00 | 43 | 1009.7 |
| 20260504040042 | 61 | 33 | 6.0 | 12.0 | 0.00 | 0.00 | 0.00 | 42 | 1009.6 |
| 20260504035534 | 61 | 46 | 6.0 | 12.0 | 0.00 | 0.00 | 0.00 | 42 | 1009.5 |
| 20260504035038 | 60 | 37 | 6.0 | 12.0 | 0.00 | 0.00 | 0.00 | 44 | 1009.5 |
| 20260504034548 | 59 | 36 | 9.0 | 12.0 | 0.00 | 0.00 | 0.00 | 46 | 1009.2 |
| 20260504034035 | 61 | 20 | 5.0 | 8.0 | 0.00 | 0.00 | 0.00 | 43 | 1009.4 |
| 20260504033535 | 62 | 61 | 5.0 | 8.0 | 0.00 | 0.00 | 0.00 | 40 | 1009.4 |
| 20260504033046 | 62 | 61 | 6.0 | 9.0 | 0.00 | 0.00 | 0.00 | 40 | 1009.3 |
| 20260504032535 | 63 | 70 | 6.0 | 9.0 | 0.00 | 0.00 | 0.00 | 40 | 1009.2 |
| 20260504032039 | 63 | 70 | 6.0 | 8.0 | 0.00 | 0.00 | 0.00 | 40 | 1009.0 |
| 20260504031546 | 63 | 65 | 5.0 | 7.0 | 0.00 | 0.00 | 0.00 | 40 | 1009.3 |
| 20260504031034 | 63 | 62 | 5.0 | 7.0 | 0.00 | 0.00 | 0.00 | 40 | 1009.3 |
| 20260504030535 | 63 | 65 | 5.0 | 7.0 | 0.00 | 0.00 | 0.00 | 40 | 1009.3 |
| 20260504030046 | 63 | 66 | 5.0 | 6.0 | 0.00 | 0.00 | 0.00 | 40 | 1009.3 |
| 20260504025537 | 63 | 68 | 4.0 | 7.0 | 0.00 | 0.00 | 0.00 | 40 | 1009.1 |
| 20260504025039 | 63 | 71 | 5.0 | 8.0 | 0.00 | 0.00 | 0.00 | 40 | 1009.0 |
| 20260504024549 | 63 | 77 | 6.0 | 9.0 | 0.00 | 0.00 | 0.00 | 39 | 1008.7 |
| 20260504024038 | 64 | 87 | 7.0 | 10.0 | 0.00 | 0.00 | 0.00 | 38 | 1008.6 |
| 20260504023536 | 64 | 96 | 8.0 | 10.0 | 0.00 | 0.00 | 0.00 | 38 | 1008.5 |
| 20260504023043 | 64 | 98 | 8.0 | 11.0 | 0.00 | 0.00 | 0.00 | 37 | 1008.5 |
| 20260504022536 | 65 | 106 | 8.0 | 11.0 | 0.00 | 0.00 | 0.00 | 36 | 1008.4 |
| 20260504022037 | 65 | 108 | 9.0 | 11.0 | 0.00 | 0.00 | 0.00 | 36 | 1008.4 |
| 20260504021546 | 65 | 105 | 9.0 | 11.0 | 0.00 | 0.00 | 0.00 | 36 | 1008.2 |
| 20260504021041 | 65 | 109 | 8.0 | 10.0 | 0.00 | 0.00 | 0.00 | 36 | 1008.3 |
| 20260504020535 | 65 | 103 | 8.0 | 10.0 | 0.00 | 0.00 | 0.00 | 35 | 1008.1 |
| 20260504020124 | 66 | 102 | 9.0 | 10.0 | 0.00 | 0.00 | 0.00 | 35 | 1008.1 |
| 20260504015535 | 66 | 111 | 8.0 | 9.0 | 0.00 | 0.00 | 0.00 | 35 | 1008.1 |
| 20260504015035 | 67 | 106 | 7.0 | 8.0 | 0.00 | 0.00 | 0.00 | 34 | 1008.2 |
| 20260504014558 | 67 | 109 | 7.0 | 9.0 | 0.00 | 0.00 | 0.00 | 34 | 1008.3 |
| 20260504014035 | 68 | 103 | 7.0 | 9.0 | 0.00 | 0.00 | 0.00 | 33 | 1008.3 |
| 20260504013535 | 68 | 107 | 7.0 | 9.0 | 0.00 | 0.00 | 0.00 | 33 | 1008.3 |
| 20260504013050 | 69 | 113 | 6.0 | 7.0 | 0.00 | 0.00 | 0.00 | 32 | 1008.4 |
| 20260504012538 | 70 | 111 | 6.0 | 7.0 | 0.00 | 0.00 | 0.00 | 32 | 1008.6 |
| 20260504012035 | 70 | 110 | 4.0 | 6.0 | 0.00 | 0.00 | 0.00 | 32 | 1008.5 |
| 20260504011543 | 71 | 107 | 3.0 | 6.0 | 0.00 | 0.00 | 0.00 | 30 | 1008.6 |
| 20260504011035 | 71 | 109 | 3.0 | 6.0 | 0.00 | 0.00 | 0.00 | 30 | 1008.6 |
| 20260504010535 | 72 | 114 | 4.0 | 6.0 | 0.00 | 0.00 | 0.00 | 30 | 1008.6 |
| 20260504010048 | 72 | 125 | 3.0 | 6.0 | 0.00 | 0.00 | 0.00 | 30 | 1008.7 |
| 20260504005535 | 72 | 133 | 3.0 | 7.0 | 0.00 | 0.00 | 0.00 | 29 | 1008.7 |
| 20260504005035 | 72 | 121 | 3.0 | 7.0 | 0.00 | 0.00 | 0.00 | 29 | 1008.8 |
| 20260504004616 | 73 | 109 | 4.0 | 7.0 | 0.00 | 0.00 | 0.00 | 27 | 1008.9 |
| 20260504004035 | 73 | 144 | 3.0 | 6.0 | 0.00 | 0.00 | 0.00 | 28 | 1008.9 |
| 20260504003535 | 73 | 117 | 4.0 | 6.0 | 0.00 | 0.00 | 0.00 | 27 | 1009.0 |
| 20260504003050 | 74 | 128 | 4.0 | 6.0 | 0.00 | 0.00 | 0.00 | 28 | 1009.1 |
| 20260504002535 | 74 | 126 | 2.0 | 5.0 | 0.00 | 0.00 | 0.00 | 26 | 1009.1 |
| 20260504002035 | 74 | 147 | 3.0 | 6.0 | 0.00 | 0.00 | 0.00 | 27 | 1009.2 |
| 20260504001619 | 74 | 157 | 3.0 | 6.0 | 0.00 | 0.00 | 0.00 | 27 | 1009.4 |
| 20260504001035 | 75 | 125 | 2.0 | 4.0 | 0.00 | 0.00 | 0.00 | 26 | 1009.4 |
| 20260504000535 | 75 | 149 | 1.0 | 3.0 | 0.00 | 0.00 | 0.00 | 26 | 1009.3 |
| 20260504000045 | 75 | 136 | 1.0 | 3.0 | 0.00 | 0.00 | 0.00 | 25 | 1009.5 |
| 20260503235536 | 75 | 0 | 0.0 | 1.0 | 0.00 | 0.00 | 0.00 | 26 | 1009.5 |
| 20260503235038 | 73 | 0 | 0.0 | 3.0 | 0.00 | 0.00 | 0.00 | 28 | 1009.5 |
| 20260503234543 | 73 | 0 | 1.0 | 3.0 | 0.00 | 0.00 | 0.00 | 27 | 1009.6 |
| 20260503234038 | 73 | 240 | 1.0 | 5.0 | 0.00 | 0.00 | 0.00 | 27 | 1009.9 |
| 20260503233535 | 74 | 211 | 2.0 | 5.0 | 0.00 | 0.00 | 0.00 | 26 | 1009.7 |
| 20260503233047 | 74 | 196 | 2.0 | 5.0 | 0.00 | 0.00 | 0.00 | 26 | 1009.8 |
| 20260503232535 | 73 | 183 | 2.0 | 5.0 | 0.00 | 0.00 | 0.00 | 27 | 1010.0 |
| 20260503232035 | 73 | 225 | 3.0 | 6.0 | 0.00 | 0.00 | 0.00 | 27 | 1010.0 |
| 20260503231547 | 73 | 210 | 2.0 | 6.0 | 0.00 | 0.00 | 0.00 | 27 | 1010.0 |
| 20260503231035 | 73 | 219 | 4.0 | 6.0 | 0.00 | 0.00 | 0.00 | 28 | 1010.0 |
| 20260503230536 | 72 | 275 | 2.0 | 6.0 | 0.00 | 0.00 | 0.00 | 27 | 1010.2 |
| 20260503230106 | 72 | 274 | 3.0 | 6.0 | 0.00 | 0.00 | 0.00 | 27 | 1010.2 |
| 20260503225535 | 72 | 334 | 2.0 | 4.0 | 0.00 | 0.00 | 0.00 | 27 | 1010.2 |
| 20260503225035 | 72 | 53 | 2.0 | 7.0 | 0.00 | 0.00 | 0.00 | 26 | 1010.3 |
| 20260503224545 | 73 | 0 | 0.0 | 7.0 | 0.00 | 0.00 | 0.00 | 27 | 1010.3 |
| 20260503224035 | 73 | 279 | 2.0 | 7.0 | 0.00 | 0.00 | 0.00 | 27 | 1010.4 |
| 20260503223535 | 73 | 276 | 2.0 | 11.0 | 0.00 | 0.00 | 0.00 | 27 | 1010.6 |
| 20260503223045 | 73 | 14 | 4.0 | 11.0 | 0.00 | 0.00 | 0.00 | 27 | 1010.5 |
| 20260503222535 | 73 | 0 | 3.0 | 10.0 | 0.00 | 0.00 | 0.00 | 27 | 1010.6 |
| 20260503222035 | 73 | 261 | 4.0 | 9.0 | 0.00 | 0.00 | 0.00 | 27 | 1010.7 |
| 20260503221602 | 74 | 275 | 1.0 | 9.0 | 0.00 | 0.00 | 0.00 | 26 | 1010.8 |
| 20260503221034 | 74 | 0 | 4.0 | 9.0 | 0.00 | 0.00 | 0.00 | 26 | 1010.9 |
| 20260503220535 | 74 | 217 | 4.0 | 9.0 | 0.00 | 0.00 | 0.00 | 27 | 1010.9 |
| 20260503220053 | 74 | 135 | 4.0 | 12.0 | 0.00 | 0.00 | 0.00 | 27 | 1011.0 |
| 20260503215535 | 74 | 113 | 8.0 | 12.0 | 0.00 | 0.00 | 0.00 | 27 | 1011.0 |
| 20260503215033 | 74 | 82 | 4.0 | 9.0 | 0.00 | 0.00 | 0.00 | 27 | 1011.1 |
| 20260503214545 | 74 | 242 | 6.0 | 9.0 | 0.00 | 0.00 | 0.00 | 27 | 1011.2 |
| 20260503214038 | 74 | 247 | 4.0 | 8.0 | 0.00 | 0.00 | 0.00 | 27 | 1011.3 |
| 20260503213530 | 75 | 240 | 1.0 | 4.0 | 0.00 | 0.00 | 0.00 | 28 | 1011.3 |
| 20260503213046 | 74 | 248 | 0.0 | 8.0 | 0.00 | 0.00 | 0.00 | 28 | 1011.4 |
| 20260503212533 | 74 | 0 | 1.0 | 8.0 | 0.00 | 0.00 | 0.00 | 28 | 1011.5 |
| 20260503212035 | 74 | 351 | 0.0 | 8.0 | 0.00 | 0.00 | 0.00 | 27 | 1011.5 |
| 20260503211548 | 74 | 224 | 3.0 | 8.0 | 0.00 | 0.00 | 0.00 | 28 | 1011.5 |
| 20260503211034 | 74 | 255 | 2.0 | 9.0 | 0.00 | 0.00 | 0.00 | 27 | 1011.6 |
| 20260503210534 | 73 | 85 | 2.0 | 10.0 | 0.00 | 0.00 | 0.00 | 27 | 1011.6 |
| 20260503210051 | 74 | 71 | 3.0 | 10.0 | 0.00 | 0.00 | 0.00 | 27 | 1011.7 |
| 20260503205535 | 73 | 234 | 0.0 | 11.0 | 0.00 | 0.00 | 0.00 | 29 | 1011.8 |
| 20260503205034 | 72 | 71 | 0.0 | 13.0 | 0.00 | 0.00 | 0.00 | 29 | 1012.0 |
| 20260503204541 | 72 | 71 | 7.0 | 13.0 | 0.00 | 0.00 | 0.00 | 28 | 1012.0 |
| 20260503204033 | 71 | 59 | 10.0 | 17.0 | 0.00 | 0.00 | 0.00 | 29 | 1012.0 |
| 20260503203534 | 71 | 58 | 4.0 | 17.0 | 0.00 | 0.00 | 0.00 | 29 | 1012.1 |
| 20260503203059 | 71 | 44 | 7.0 | 16.0 | 0.00 | 0.00 | 0.00 | 29 | 1012.0 |
| 20260503202537 | 72 | 60 | 10.0 | 15.0 | 0.00 | 0.00 | 0.00 | 28 | 1012.2 |
| 20260503202036 | 72 | 88 | 7.0 | 11.0 | 0.00 | 0.00 | 0.00 | 29 | 1012.2 |
| 20260503201541 | 72 | 97 | 4.0 | 11.0 | 0.00 | 0.00 | 0.00 | 28 | 1012.2 |
| 20260503201033 | 72 | 82 | 4.0 | 9.0 | 0.00 | 0.00 | 0.00 | 28 | 1012.1 |
| 20260503200533 | 72 | 115 | 5.0 | 11.0 | 0.00 | 0.00 | 0.00 | 29 | 1012.1 |
| 20260503200041 | 72 | 59 | 8.0 | 11.0 | 0.00 | 0.00 | 0.00 | 28 | 1012.2 |
| 20260503195535 | 72 | 74 | 2.0 | 13.0 | 0.00 | 0.00 | 0.00 | 29 | 1012.2 |
| 20260503195033 | 72 | 69 | 8.0 | 13.0 | 0.00 | 0.00 | 0.00 | 28 | 1012.3 |
| 20260503194548 | 73 | 59 | 5.0 | 10.0 | 0.00 | 0.00 | 0.00 | 29 | 1012.2 |
| 20260503194033 | 71 | 303 | 2.0 | 9.0 | 0.00 | 0.00 | 0.00 | 31 | 1012.3 |
| 20260503193531 | 70 | 265 | 3.0 | 13.0 | 0.00 | 0.00 | 0.00 | 29 | 1012.4 |
| 20260503193047 | 70 | 37 | 9.0 | 15.0 | 0.00 | 0.00 | 0.00 | 29 | 1012.3 |
| 20260503192533 | 71 | 348 | 3.0 | 15.0 | 0.00 | 0.00 | 0.00 | 29 | 1012.5 |
| 20260503192034 | 71 | 31 | 9.0 | 15.0 | 0.00 | 0.00 | 0.00 | 28 | 1012.6 |
| 20260503191551 | 71 | 44 | 10.0 | 15.0 | 0.00 | 0.00 | 0.00 | 29 | 1012.5 |
| 20260503191034 | 71 | 34 | 1.0 | 9.0 | 0.00 | 0.00 | 0.00 | 29 | 1012.7 |
| 20260503190533 | 71 | 101 | 3.0 | 9.0 | 0.00 | 0.00 | 0.00 | 28 | 1012.7 |
| 20260503190057 | 71 | 63 | 2.0 | 8.0 | 0.00 | 0.00 | 0.00 | 29 | 1012.7 |
| 20260503185533 | 71 | 134 | 1.0 | 10.0 | 0.00 | 0.00 | 0.00 | 28 | 1012.8 |
| 20260503185034 | 70 | 322 | 5.0 | 15.0 | 0.00 | 0.00 | 0.00 | 29 | 1013.0 |
| 20260503184547 | 70 | 42 | 5.0 | 15.0 | 0.00 | 0.00 | 0.00 | 29 | 1013.0 |
| 20260503184034 | 70 | 19 | 8.0 | 19.0 | 0.00 | 0.00 | 0.00 | 29 | 1013.0 |
| 20260503183535 | 71 | 55 | 8.0 | 19.0 | 0.00 | 0.00 | 0.00 | 30 | 1013.1 |
| 20260503183047 | 70 | 40 | 12.0 | 19.0 | 0.00 | 0.00 | 0.00 | 29 | 1013.2 |
| 20260503182533 | 70 | 264 | 7.0 | 14.0 | 0.00 | 0.00 | 0.00 | 29 | 1013.2 |
| 20260503182030 | 70 | 79 | 5.0 | 19.0 | 0.00 | 0.00 | 0.00 | 30 | 1013.4 |
| 20260503181554 | 70 | 325 | 7.0 | 19.0 | 0.00 | 0.00 | 0.00 | 31 | 1013.5 |
| 20260503181030 | 69 | 333 | 12.0 | 19.0 | 0.00 | 0.00 | 0.00 | 31 | 1013.5 |
| 20260503180533 | 69 | 306 | 4.0 | 16.0 | 0.00 | 0.00 | 0.00 | 31 | 1013.6 |
| 20260503180052 | 69 | 63 | 10.0 | 16.0 | 0.00 | 0.00 | 0.00 | 29 | 1013.6 |
| 20260503175534 | 70 | 34 | 2.0 | 17.0 | 0.00 | 0.00 | 0.00 | 30 | 1013.7 |
| 20260503175034 | 70 | 63 | 9.0 | 17.0 | 0.00 | 0.00 | 0.00 | 30 | 1013.8 |
| 20260503174548 | 69 | 28 | 9.0 | 15.0 | 0.00 | 0.00 | 0.00 | 30 | 1013.9 |
| 20260503174034 | 69 | 86 | 5.0 | 15.0 | 0.00 | 0.00 | 0.00 | 31 | 1014.0 |
| 20260503173534 | 70 | 78 | 10.0 | 15.0 | 0.00 | 0.00 | 0.00 | 30 | 1014.2 |
| 20260503173041 | 68 | 78 | 10.0 | 17.0 | 0.00 | 0.00 | 0.00 | 31 | 1014.2 |
| 20260503172533 | 68 | 35 | 10.0 | 17.0 | 0.00 | 0.00 | 0.00 | 31 | 1014.3 |
| 20260503172033 | 68 | 31 | 8.0 | 18.0 | 0.00 | 0.00 | 0.00 | 32 | 1014.4 |
| 20260503171541 | 68 | 62 | 12.0 | 18.0 | 0.00 | 0.00 | 0.00 | 31 | 1014.5 |
| 20260503171035 | 68 | 39 | 9.0 | 20.0 | 0.00 | 0.00 | 0.00 | 33 | 1014.4 |
| 20260503170533 | 67 | 18 | 15.0 | 20.0 | 0.00 | 0.00 | 0.00 | 32 | 1014.5 |
| 20260503150535 | 62 | 38 | 15.0 | 22.0 | 0.00 | 0.00 | 0.00 | 36 | 1015.2 |